Weather History for Pinedale, WY

Change the Weather History Date:

Friday, November 16, 2012

  Actual Average (KBPI) Record (KBPI)
Temperature  
Mean Temperature 24 °F 24 °F  
Max Temperature 35 °F 37 °F 59 °F (1999)
Min Temperature 12 °F 10 °F -27 °F (1978)
Degree Days  
Heating Degree Days 42 42  
Month to date heating degree days 599  
Since 1 July heating degree days 2179  
Cooling Degree Days 0 0  
Month to date cooling degree days 0  
Year to date cooling degree days 35  
Moisture  
Dew Point 22 °F    
Average Humidity 84    
Maximum Humidity 100    
Minimum Humidity 60    
Precipitation  
Precipitation 0.00 in 0.01 in 0.15 in (1996)
Month to date precipitation 0.12  
Year to date precipitation 6.09  
Sea Level Pressure  
Sea Level Pressure 30.17 in    
Wind  
Wind Speed 4 mph (WNW)    
Max Wind Speed 12 mph    
Max Gust Speed -    
Visibility 10 miles    
Events      
T = Trace of Precipitation, MM = Missing Value Source: NWS Daily Summary

Daily Weather History Graph

Daily Weather History Graph

Search for Another Location

Airport:

Trip Planner

Search our weather history database for the weather conditions in past years. The results will help you decide how hot, cold, wet, or windy it might be!

Date:

Astronomy

Nov. 16, 2012 Rise Set
Actual Time 7:13 AM MST 4:54 PM MST
Civil Twilight 6:42 AM MST 5:25 PM MST
Nautical Twilight 6:08 AM MST 5:59 PM MST
Astronomical Twilight 5:34 AM MST 6:33 PM MST
Moon 10:11 AM MST (11/16) 7:57 PM MST (11/16)
Length of Visible Light 10h 42m
Length of Day
9h 41m
Waxing Crescent, 12% of the Moon is Illuminated
Nov 16
Waxing Crescent
Nov 20
First Quarter
Nov 28
Full
Dec 6
Last Quarter
Dec 13
New

Hourly Weather History & Observations

Time (MST) Temp. Windchill Dew Point Humidity Pressure Visibility Wind Dir Wind Speed Gust Speed Precip Events Conditions
12:15 AM 14.0 °F 5.1 °F 12.2 °F 93% 30.27 in 10.0 mi West 5.8 mph - N/A   Clear
12:35 AM 14.0 °F 5.1 °F 12.2 °F 93% 30.27 in 10.0 mi WNW 5.8 mph - N/A   Clear
12:55 AM 15.8 °F 5.1 °F 14.0 °F 93% 30.26 in 10.0 mi NW 8.1 mph - N/A   Clear
1:15 AM 14.0 °F 5.1 °F 12.2 °F 93% 30.26 in 10.0 mi WNW 5.8 mph - N/A   Clear
1:35 AM 14.0 °F 3.9 °F 12.2 °F 93% 30.27 in 10.0 mi West 6.9 mph - N/A   Clear
1:55 AM 14.0 °F 5.1 °F 12.2 °F 93% 30.27 in 10.0 mi WNW 5.8 mph - N/A   Clear
2:15 AM 14.0 °F 8.2 °F 12.2 °F 93% 30.27 in 10.0 mi WNW 3.5 mph - N/A   Clear
2:35 AM 12.2 °F 2.9 °F 12.2 °F 100% 30.26 in 10.0 mi West 5.8 mph - N/A   Clear
2:55 AM 14.0 °F 5.1 °F 12.2 °F 93% 30.25 in 10.0 mi WNW 5.8 mph - N/A   Clear
3:15 AM 15.8 °F 5.1 °F 14.0 °F 93% 30.24 in 10.0 mi NW 8.1 mph - N/A   Clear
3:35 AM 14.0 °F 6.5 °F 12.2 °F 93% 30.24 in 10.0 mi WNW 4.6 mph - N/A   Clear
3:55 AM 14.0 °F 6.5 °F 12.2 °F 93% 30.23 in 10.0 mi West 4.6 mph - N/A   Clear
4:15 AM 14.0 °F 3.9 °F 12.2 °F 93% 30.22 in 10.0 mi West 6.9 mph - N/A   Clear
4:35 AM 12.2 °F 2.9 °F 12.2 °F 100% 30.22 in 10.0 mi West 5.8 mph - N/A   Clear
4:55 AM 14.0 °F 3.9 °F 12.2 °F 93% 30.21 in 10.0 mi NW 6.9 mph - N/A   Clear
5:15 AM 14.0 °F 3.9 °F 12.2 °F 93% 30.21 in 10.0 mi NW 6.9 mph - N/A   Clear
5:35 AM 15.8 °F 6.1 °F 14.0 °F 93% 30.21 in 10.0 mi NW 6.9 mph - N/A   Mostly Cloudy
5:55 AM 14.0 °F 5.1 °F 14.0 °F 100% 30.20 in 10.0 mi WNW 5.8 mph - N/A   Scattered Clouds
6:15 AM 17.6 °F 10.7 °F 14.0 °F 86% 30.20 in 10.0 mi West 4.6 mph - N/A   Mostly Cloudy
6:35 AM 17.6 °F 9.3 °F 15.8 °F 93% 30.20 in 10.0 mi WNW 5.8 mph - N/A   Overcast
6:55 AM 19.4 °F 10.4 °F 17.6 °F 93% 30.19 in 10.0 mi WNW 6.9 mph - N/A   Overcast
7:15 AM 19.4 °F - 17.6 °F 93% 30.19 in 10.0 mi Calm Calm - N/A   Overcast
7:35 AM 19.4 °F 14.3 °F 17.6 °F 93% 30.19 in 10.0 mi West 3.5 mph - N/A   Mostly Cloudy
7:55 AM 19.4 °F 11.5 °F 17.6 °F 93% 30.19 in 10.0 mi West 5.8 mph - N/A   Scattered Clouds
8:15 AM 21.2 °F 12.6 °F 19.4 °F 93% 30.19 in 10.0 mi NW 6.9 mph - N/A   Scattered Clouds
8:35 AM 23.0 °F 11.7 °F 21.2 °F 93% 30.19 in 10.0 mi WNW 11.5 mph - N/A   Mostly Cloudy
8:55 AM 24.8 °F 15.3 °F 21.2 °F 86% 30.19 in 10.0 mi West 9.2 mph - N/A   Overcast
9:15 AM 26.6 °F 22.6 °F 23.0 °F 86% 30.19 in 10.0 mi NW 3.5 mph - N/A   Mostly Cloudy
9:35 AM 28.4 °F 21.2 °F 23.0 °F 80% 30.18 in 10.0 mi North 6.9 mph - N/A   Mostly Cloudy
9:55 AM 30.2 °F - 23.0 °F 75% 30.18 in 10.0 mi Calm Calm - N/A   Mostly Cloudy
10:15 AM 30.2 °F - 23.0 °F 75% 30.18 in 10.0 mi Calm Calm - N/A   Mostly Cloudy
10:35 AM 32.0 °F - 23.0 °F 69% 30.18 in 10.0 mi Calm Calm - N/A   Scattered Clouds
10:55 AM 32.0 °F - 23.0 °F 69% 30.18 in 10.0 mi Calm Calm - N/A   Scattered Clouds
11:15 AM 32.0 °F 27.5 °F 24.8 °F 75% 30.17 in 10.0 mi SW 4.6 mph - N/A   Mostly Cloudy
11:35 AM 32.0 °F - 23.0 °F 69% 30.16 in 10.0 mi Calm Calm - N/A   Overcast
11:55 AM 33.8 °F - 23.0 °F 65% 30.15 in 10.0 mi Calm Calm - N/A   Overcast
12:15 PM 33.8 °F 30.8 °F 23.0 °F 65% 30.14 in 10.0 mi East 3.5 mph - N/A   Overcast
12:35 PM 33.8 °F - 23.0 °F 65% 30.14 in 10.0 mi Calm Calm - N/A   Overcast
12:55 PM 33.8 °F - 23.0 °F 65% 30.13 in 10.0 mi Calm Calm - N/A   Overcast
1:15 PM 33.8 °F - 23.0 °F 65% 30.13 in 10.0 mi Calm Calm - N/A   Overcast
1:35 PM 33.8 °F - 23.0 °F 65% 30.13 in 10.0 mi Calm Calm - N/A   Overcast
1:55 PM 35.6 °F - 23.0 °F 60% 30.12 in 10.0 mi Calm Calm - N/A   Overcast
2:15 PM 35.6 °F - 23.0 °F 60% 30.11 in 10.0 mi Calm Calm - N/A   Overcast
2:35 PM 35.6 °F - 26.6 °F 70% 30.11 in 10.0 mi Calm Calm - N/A   Overcast
2:55 PM 33.8 °F 30.8 °F 26.6 °F 75% 30.11 in 10.0 mi ESE 3.5 mph - N/A   Overcast
3:15 PM 33.8 °F 30.8 °F 26.6 °F 75% 30.10 in 10.0 mi East 3.5 mph - N/A   Overcast
3:35 PM 33.8 °F - 26.6 °F 75% 30.11 in 10.0 mi Calm Calm - N/A   Overcast
3:55 PM 35.6 °F - 26.6 °F 70% 30.11 in 10.0 mi Calm Calm - N/A   Overcast
4:15 PM 33.8 °F - 26.6 °F 75% 30.11 in 10.0 mi Calm Calm - N/A   Overcast
4:35 PM 33.8 °F - 26.6 °F 75% 30.11 in 10.0 mi Calm Calm - N/A   Overcast
4:55 PM 32.0 °F 26.4 °F 26.6 °F 80% 30.11 in 10.0 mi WNW 5.8 mph - N/A   Overcast
5:15 PM 32.0 °F 24.8 °F 28.4 °F 87% 30.11 in 10.0 mi NW 8.1 mph - N/A   Overcast
5:35 PM 33.8 °F 27.7 °F 26.6 °F 75% 30.12 in 10.0 mi NW 6.9 mph - N/A   Overcast
5:55 PM 32.0 °F 25.6 °F 28.4 °F 87% 30.12 in 10.0 mi NW 6.9 mph - N/A   Overcast
6:15 PM 32.0 °F 27.5 °F 28.4 °F 87% 30.12 in 10.0 mi WNW 4.6 mph - N/A   Overcast
6:35 PM 32.0 °F - 26.6 °F 80% 30.13 in 10.0 mi Calm Calm - N/A   Overcast
6:55 PM 32.0 °F - 26.6 °F 80% 30.13 in 10.0 mi Calm Calm - N/A   Overcast
7:15 PM 32.0 °F 28.7 °F 26.6 °F 80% 30.13 in 10.0 mi WSW 3.5 mph - N/A   Overcast
7:35 PM 32.0 °F 28.7 °F 28.4 °F 87% 30.13 in 10.0 mi SE 3.5 mph - N/A   Overcast
7:55 PM 32.0 °F 28.7 °F 28.4 °F 87% 30.13 in 10.0 mi SE 3.5 mph - N/A   Overcast
8:15 PM 32.0 °F - 28.4 °F 87% 30.13 in 10.0 mi Calm Calm - N/A   Overcast
8:35 PM 32.0 °F 28.7 °F 28.4 °F 87% 30.13 in 10.0 mi ENE 3.5 mph - N/A   Overcast
8:55 PM 32.0 °F 25.6 °F 28.4 °F 87% 30.13 in 10.0 mi ESE 6.9 mph - N/A   Overcast
9:15 PM 32.0 °F - 28.4 °F 87% 30.13 in 10.0 mi Calm Calm - N/A   Overcast
9:35 PM 32.0 °F 28.7 °F 28.4 °F 87% 30.14 in 10.0 mi ENE 3.5 mph - N/A   Mostly Cloudy
9:55 PM 30.2 °F - 28.4 °F 93% 30.14 in 10.0 mi Calm Calm - N/A   Mostly Cloudy
10:15 PM 30.2 °F - 28.4 °F 93% 30.14 in 10.0 mi Calm Calm - N/A   Overcast
10:35 PM 30.2 °F - 28.4 °F 93% 30.14 in 10.0 mi Calm Calm - N/A   Overcast
10:55 PM 28.4 °F - 28.4 °F 100% 30.15 in 10.0 mi Calm Calm - N/A   Overcast
11:15 PM 28.4 °F 24.6 °F 26.6 °F 93% 30.15 in 10.0 mi WSW 3.5 mph - N/A   Overcast
11:35 PM 26.6 °F 21.2 °F 26.6 °F 100% 30.16 in 10.0 mi WNW 4.6 mph - N/A   Mostly Cloudy
11:55 PM 26.6 °F - 24.8 °F 93% 30.16 in 10.0 mi Calm Calm - N/A   Scattered Clouds